[[{"header":{"parameterUnit":"m.s-1","parameterCategory":1,"la1":30.2991,"la2":30.254,"lo1":-89.0895,"lo2":-89.0444,"dy":0.0017,"dx":0.0017,"nx":28,"ny":28,"refTime":"2025-03-29T21:00:00:Z","depth":0,"parameterNumber":2,"parameterNumberName":"U-component_of_WINDS"},"data":[0,0,0,0,0,0,0,0,0,0,0,0,0,0,0,0,0,0,0,0,0,0,0,0,0,0,0,0,0,0,0,0,0,0,0,0,0,0,0,0,0,0,0,0,0,0,0,0,0,0,0,0,0,0,0,0,0,0,-5.9175,-5.9176,0,-5.9338,-5.934,-5.9342,-5.9372,-5.9371,-5.9369,-5.9368,-5.9536,-5.9541,-5.9547,0,0,0,0,0,0,0,0,0,0,0,0,0,-5.8889,-5.8894,-5.9174,-5.9176,-5.9179,-5.9338,-5.934,-5.9342,-5.9372,-5.9371,-5.9369,-5.9368,-5.9534,-5.9541,-5.9548,0,0,0,0,0,0,0,0,0,0,0,0,0,-5.9029,-5.8896,-5.9174,-5.9213,-5.9218,-5.9338,-5.934,-5.9343,-5.9373,-5.9371,-5.9369,-5.9367,-5.9532,-5.954,-5.9549,-5.9641,0,0,-5.9575,-5.9578,0,0,0,0,0,0,0,0,-5.9021,-5.904,-5.9205,-5.921,-5.9216,-5.9333,-5.9301,-5.9443,-5.9373,-5.9314,-5.9368,-5.9366,-5.947,-5.9483,-5.9519,-5.9649,-5.9656,-5.9575,-5.9581,-5.9584,-5.9587,0,0,0,0,0,0,0,-5.9011,-5.9033,-5.9239,-5.9207,-5.9214,-5.9222,-5.924,-5.9328,-5.9401,-5.9319,-5.9321,-5.934,-5.9473,-5.951,-5.9523,-5.9659,-5.9575,-5.9583,-5.9588,-5.9591,-5.9875,-5.9877,0,0,0,0,0,0,-5.8995,-5.9024,-5.9234,-5.9244,-5.9112,-5.9229,-5.9249,-5.9297,-5.94,-5.9414,-5.9342,-5.9341,-5.9497,-5.9513,-5.9529,-5.9644,-5.9584,-5.9592,-5.9597,-5.9873,-5.9875,-5.9878,0,0,0,0,0,0,-5.8988,-5.9013,-5.9227,-5.9135,-5.9163,-5.9236,-5.929,-5.9302,-5.9339,-5.9418,-5.9431,-5.9367,-5.9496,-5.9517,-5.9613,-5.965,-5.9596,-5.9604,-5.987,-5.9873,-5.9877,-5.9874,0,0,0,0,0,0,-5.898,-5.9011,-5.9046,-5.9136,-5.9168,-5.9309,-5.9293,-5.9306,-5.9354,-5.9354,-5.9444,-5.9457,-5.9496,-5.96,-5.9622,-5.9661,-5.9611,-5.9867,-5.9871,-5.9876,-5.9871,-5.9877,-5.9882,0,0,0,0,0,-5.897,-5.9039,-5.9048,-5.9073,-5.9213,-5.9311,-5.9329,-5.9371,-5.9357,-5.9393,-5.9444,-5.9455,-5.9643,-5.961,-5.9634,-5.9676,-5.9864,-5.987,-5.9875,-5.9869,-5.9876,-5.9882,0,0,0,0,0,0,-5.8951,-5.9051,-5.9062,-5.9162,-5.9228,-5.9315,-5.9362,-5.9378,-5.9449,-5.9446,-5.9497,-5.9517,-5.961,-5.9654,-5.9615,-5.9772,-5.9753,-5.9763,-5.974,-5.9747,-5.9753,-5.9739,-5.9618,0,0,0,0,0,-5.8958,-5.9029,-5.9113,-5.9193,-5.9225,-5.9288,-5.9332,-5.936,-5.943,-5.9457,-5.9515,-5.9583,-5.9658,-5.9705,-5.9778,-5.9879,-5.9899,-5.992,-5.9926,-5.993,-5.9938,-5.9994,-6.0004,-5.9896,-5.9896,-5.9896,0,0,-5.8974,-5.9038,-5.9079,-5.9191,-5.9244,-5.9316,-5.9311,-5.9387,-5.9441,-5.9469,-5.9563,-5.9609,-5.9688,-5.9787,-5.9833,-5.9825,-5.9973,-5.9937,-5.994,-5.9945,-6.0001,-6.0011,-6.002,-5.9899,-5.9899,-5.9898,0,0,-5.9039,-5.9095,-5.9167,-5.9222,-5.9305,-5.9347,-5.9364,-5.9451,-5.9482,-5.9578,-5.96,-5.9666,-5.9793,-5.9849,-5.9893,-5.9983,-5.9995,-6.0006,-6.0033,-6.0088,-6.0096,-6.0104,-6.0135,-6.0145,-6.0014,-6.0014,-6.0014,0,-5.9048,-5.9157,-5.9203,-5.9278,-5.9327,-5.9357,-5.9431,-5.9482,-5.9584,-5.9617,-5.9607,-5.9769,-5.9824,-5.9936,-5.9958,-5.9994,-6.0016,-5.9994,-6.0091,-6.01,-6.0108,-6.0137,-6.0149,-6.0014,-6.0014,-6.0014,-6.0014,0,-5.9164,-5.9239,-5.9288,-5.9385,-5.944,-5.9515,-5.9572,-5.9622,-5.9646,-5.9689,-5.9787,-5.9855,-5.9943,-5.9972,-5.9996,-6.0089,-6.0081,-6.0081,-6.0062,-6.0118,-6.0146,-6.0158,-6.0015,-6.0015,-6.0015,-6.0014,0,0,-5.9217,-5.9342,-5.9359,-5.9404,-5.9498,-5.9557,-5.9634,-5.972,-5.9761,-5.9832,-5.9897,-6.0006,-6.0007,-6.0058,-6.0089,-6.0137,-6.0202,-6.0131,-6.0134,-6.0141,-6.0308,-6.0305,-6.0318,-6.0213,-6.0215,-6.0217,-6.0301,0,-5.9292,-5.9429,-5.9473,-5.9587,-5.9657,-5.9688,-5.9755,-5.9821,-5.9864,-5.9931,-5.9979,-6.0055,-6.0051,-6.0082,-6.0132,-6.0184,-6.0236,-6.0179,-6.0273,-6.0276,-6.0249,-6.0333,-6.033,-6.0406,-6.0312,-6.0314,-6.0316,0,-5.9397,-5.9469,-5.9589,-5.9676,-5.9707,-5.9766,-5.9849,-5.9912,-5.9988,-6.0016,-6.0075,-6.0102,-6.0184,-6.0163,-6.0277,-6.0237,-6.0279,-6.0311,-6.0315,-6.0323,-6.0297,-6.0341,-6.0431,-6.0441,-6.0334,-6.0333,-6.0332,0,-5.9422,-5.9549,-5.9638,-5.9676,-5.9779,-5.982,-5.9865,-5.9939,-5.9989,-6.0062,-6.0094,-6.0176,-6.022,-6.0284,-6.0333,-6.0314,-6.0442,-6.0425,-6.0467,-6.0466,-6.049,-6.0488,-6.0585,-6.0522,-6.0522,-6.0521,-6.0521,0,-5.9499,-5.9571,-5.965,-5.9704,-5.9787,-5.9839,-5.9919,-5.9966,-6.0032,-6.0097,-6.013,-6.019,-6.0253,-6.0321,-6.0361,-6.0449,-6.0469,-6.0494,-6.0503,-6.049,-6.0486,-6.0515,-6.0511,-6.0524,-6.0524,-6.0523,-6.0523,0,-5.9539,-5.9595,-5.9694,-5.9785,-5.9809,-5.9866,-5.9944,-5.9998,-6.0044,-6.0125,-6.0148,-6.022,-6.0302,-6.0359,-6.0465,-6.0492,-6.0586,-6.0596,-6.056,-6.0564,-6.0602,-6.0597,-6.072,-6.0738,-6.0664,-6.0665,-6.0665,0,-5.9583,-5.9639,-5.9736,-5.9782,-5.9827,-5.99,-5.9951,-6.0005,-6.0057,-6.0149,-6.0192,-6.0277,-6.0347,-6.0478,-6.054,-6.0621,-6.0632,-6.067,-6.0644,-6.0629,-6.063,-6.0625,-6.0631,-6.0672,-6.0673,-6.0673,-6.0674,0,-5.9654,-5.968,-5.9751,-5.9833,-5.9893,-5.996,-6.0027,-6.0063,-6.013,-6.0186,-6.0271,-6.0326,-6.0435,-6.0518,-6.0606,-6.0654,-6.0675,-6.0682,-6.0696,-6.0681,-6.0657,-6.0669,-6.0568,-6.0678,-6.0677,-6.0677,-6.0677,-6.0677,-5.9696,-5.9748,-5.9824,-5.9903,-5.996,-6.0023,-6.0078,-6.0132,-6.0204,-6.0296,-6.0325,-6.0413,-6.0489,-6.061,-6.0659,-6.0729,-6.0726,-6.0746,-6.0751,-6.0754,-6.0753,-6.0648,-6.0745,-6.0745,-6.0745,-6.0745,-6.0745,0,-5.9768,-5.9819,-5.9892,-5.9985,-6.0048,-6.0064,-6.014,-6.0191,-6.0268,-6.0337,-6.0406,-6.0504,-6.0587,-6.0656,-6.0741,-6.0784,-6.0796,-6.0804,-6.08,-6.0811,-6.0752,-6.073,-6.0793,-6.0793,-6.0793,-6.0793,-6.0793,-6.0793,-5.9812,-5.99,-5.9935,-6.0052,-6.0104,-6.019,-6.0232,-6.029,-6.0346,-6.0454,-6.0522,-6.0567,-6.0637,-6.0728,-6.0805,-6.0823,-6.0852,-6.0858,-6.0878,-6.0821,-6.0815,-6.081,-6.079,-6.0864,-6.0865,-6.0932,-6.0933,-6.0933]},{"header":{"parameterUnit":"m.s-1","parameterCategory":1,"la1":30.2991,"la2":30.254,"lo1":-89.0895,"lo2":-89.0444,"dy":0.0017,"dx":0.0017,"nx":28,"ny":28,"refTime":"2025-03-29T21:00:00:Z","depth":0,"parameterNumber":3,"parameterNumberName":"V-component_of_WINDS"},"data":[0,0,0,0,0,0,0,0,0,0,0,0,0,0,0,0,0,0,0,0,0,0,0,0,0,0,0,0,0,0,0,0,0,0,0,0,0,0,0,0,0,0,0,0,0,0,0,0,0,0,0,0,0,0,0,0,0,0,4.4973,4.4975,0,4.5181,4.5183,4.5185,4.5263,4.5262,4.5261,4.5261,4.5473,4.5479,4.5485,0,0,0,0,0,0,0,0,0,0,0,0,0,4.4644,4.465,4.4973,4.4975,4.4978,4.518,4.5183,4.5186,4.5263,4.5262,4.5261,4.526,4.5471,4.5478,4.5486,0,0,0,0,0,0,0,0,0,0,0,0,0,4.4813,4.4651,4.4972,4.5041,4.5049,4.518,4.5183,4.5187,4.5263,4.5262,4.5261,4.526,4.5468,4.5477,4.5487,4.5565,0,0,4.5515,4.5519,0,0,0,0,0,0,0,0,4.4803,4.4825,4.5028,4.5036,4.5046,4.5195,4.5145,4.5313,4.5263,4.5182,4.5261,4.526,4.5381,4.5398,4.5439,4.5574,4.5584,4.5516,4.5522,4.5526,4.5529,0,0,0,0,0,0,0,4.4791,4.4816,4.5055,4.5031,4.5042,4.5062,4.5084,4.5177,4.5284,4.5189,4.5195,4.5218,4.5386,4.5429,4.5444,4.5587,4.5516,4.5524,4.553,4.5534,4.58,4.5802,0,0,0,0,0,0,4.4768,4.4806,4.5048,4.5061,4.4919,4.5068,4.5094,4.5148,4.5284,4.5303,4.5219,4.5221,4.5414,4.5433,4.5452,4.5555,4.5526,4.5535,4.554,4.5799,4.5801,4.5802,0,0,0,0,0,0,4.4761,4.4789,4.504,4.4935,4.4969,4.5075,4.5135,4.5152,4.5196,4.5307,4.5326,4.5244,4.5414,4.5439,4.5537,4.5563,4.5539,4.5547,4.5797,4.58,4.5802,4.5759,0,0,0,0,0,0,4.4751,4.4786,4.4816,4.4935,4.4974,4.5121,4.5137,4.5157,4.5213,4.5217,4.5335,4.5354,4.5415,4.5522,4.5546,4.5576,4.5555,4.5795,4.5798,4.5801,4.5758,4.5759,4.576,0,0,0,0,0,4.4739,4.4795,4.4817,4.4846,4.5014,4.5122,4.5144,4.5214,4.5214,4.5246,4.5317,4.535,4.5556,4.5532,4.5559,4.5592,4.5794,4.5797,4.5801,4.5758,4.5759,4.576,0,0,0,0,0,0,4.4674,4.4811,4.4838,4.4934,4.5016,4.5135,4.5177,4.5212,4.5296,4.5297,4.5379,4.5405,4.5497,4.5554,4.5525,4.5676,4.5677,4.5686,4.5635,4.5637,4.5638,4.5623,4.5563,0,0,0,0,0,4.4671,4.4748,4.4863,4.4937,4.4977,4.507,4.5119,4.5166,4.5254,4.5289,4.5368,4.5452,4.5536,4.559,4.5673,4.5767,4.5795,4.5803,4.5803,4.5804,4.5811,4.5867,4.5873,4.5813,4.5813,4.5813,0,0,4.4666,4.475,4.4793,4.4926,4.4995,4.5073,4.5098,4.5179,4.5238,4.5301,4.54,4.546,4.556,4.5657,4.5703,4.5707,4.5834,4.5808,4.5807,4.5814,4.5871,4.5877,4.5882,4.5815,4.5815,4.5814,0,0,4.4696,4.4767,4.4837,4.4907,4.5011,4.5073,4.509,4.5205,4.5248,4.5348,4.5398,4.5469,4.5612,4.5682,4.5736,4.5796,4.583,4.5821,4.5825,4.5879,4.5884,4.5889,4.5913,4.592,4.5827,4.5827,4.5827,0,4.4676,4.4795,4.4869,4.4948,4.5006,4.5068,4.5142,4.5205,4.5331,4.537,4.5373,4.5555,4.5626,4.5742,4.5757,4.5798,4.5821,4.5808,4.5878,4.5883,4.5888,4.5912,4.592,4.5825,4.5825,4.5826,4.5826,0,4.4767,4.4849,4.4893,4.5015,4.5078,4.5154,4.524,4.5295,4.5337,4.5399,4.5501,4.5589,4.5693,4.5723,4.5764,4.5846,4.5845,4.5861,4.5865,4.5891,4.5915,4.5924,4.5823,4.5823,4.5824,4.5824,0,0,4.4761,4.4925,4.494,4.4998,4.5119,4.5184,4.5263,4.5366,4.5413,4.5498,4.5568,4.5688,4.5705,4.5766,4.5816,4.5863,4.5908,4.5874,4.5878,4.5879,4.6007,4.5995,4.6004,4.5931,4.5933,4.5935,4.5999,0,4.4809,4.4954,4.5024,4.5138,4.5217,4.5278,4.5347,4.543,4.549,4.5566,4.5633,4.5718,4.5732,4.577,4.582,4.5892,4.5935,4.5888,4.5998,4.6001,4.5973,4.6016,4.6004,4.606,4.6009,4.601,4.6011,0,4.4884,4.4971,4.5093,4.5209,4.5244,4.5305,4.5406,4.5477,4.5573,4.5614,4.5684,4.5732,4.582,4.5816,4.5938,4.5905,4.5954,4.5997,4.6001,4.6015,4.6009,4.6033,4.608,4.6089,4.6026,4.6025,4.6024,0,4.4871,4.5018,4.5112,4.5158,4.5294,4.5336,4.5395,4.549,4.5548,4.5636,4.5675,4.5771,4.5824,4.5898,4.5973,4.5963,4.6089,4.609,4.6126,4.6125,4.6151,4.6148,4.6207,4.6179,4.6179,4.6179,4.6179,0,4.4918,4.4991,4.5108,4.5165,4.525,4.533,4.5411,4.5475,4.5559,4.5631,4.5689,4.5755,4.5848,4.5926,4.5984,4.6078,4.6101,4.6138,4.6153,4.6134,4.6129,4.6168,4.6167,4.6181,4.6181,4.618,4.618,0,4.4917,4.4998,4.5104,4.5225,4.5257,4.5315,4.5419,4.5477,4.5541,4.5632,4.5657,4.5758,4.5853,4.5934,4.6059,4.6099,4.6197,4.6213,4.6164,4.6173,4.6205,4.6202,4.6292,4.6309,4.6267,4.6267,4.6268,0,4.4942,4.5001,4.5128,4.5181,4.5239,4.5323,4.5383,4.5465,4.5525,4.564,4.5685,4.5785,4.587,4.6019,4.6104,4.62,4.6221,4.6246,4.6236,4.6216,4.6224,4.6221,4.6228,4.6247,4.6247,4.6247,4.6247,0,4.498,4.5018,4.5103,4.5202,4.5273,4.5355,4.5438,4.5478,4.5576,4.5641,4.574,4.5805,4.5934,4.6033,4.614,4.6201,4.6241,4.625,4.6264,4.6246,4.6216,4.6235,4.6168,4.6247,4.6247,4.6247,4.6247,4.6247,4.4995,4.5051,4.515,4.5244,4.5316,4.5393,4.5455,4.5528,4.5612,4.5724,4.5767,4.5869,4.5966,4.6113,4.6174,4.6256,4.6261,4.628,4.6286,4.629,4.6288,4.6202,4.6275,4.6275,4.6275,4.6275,4.6275,0,4.5038,4.5105,4.519,4.5307,4.538,4.5412,4.5507,4.5567,4.5656,4.5743,4.5826,4.5941,4.6038,4.6131,4.6233,4.628,4.6302,4.6305,4.6303,4.6317,4.6276,4.6255,4.6286,4.6286,4.6286,4.6286,4.6286,4.6286,4.5069,4.5166,4.5216,4.535,4.5417,4.5518,4.557,4.5643,4.5713,4.5839,4.5921,4.5981,4.6071,4.6181,4.6272,4.6297,4.6332,4.6331,4.6361,4.6321,4.6319,4.6317,4.6298,4.6337,4.6338,4.6395,4.6396,4.6396]}]]